[[{"header":{"parameterUnit":"m.s-1","parameterCategory":1,"la1":30.2991,"la2":30.254,"lo1":-89.0895,"lo2":-89.0444,"dy":0.0017,"dx":0.0017,"nx":28,"ny":28,"refTime":"2024-07-16T03:00:00:Z","depth":0,"parameterNumber":2,"parameterNumberName":"U-component_of_WINDS"},"data":[0,0,0,0,0,0,0,0,0,0,0,0,0,0,0,0,0,0,0,0,0,0,0,0,0,0,0,0,0,0,0,0,0,0,0,0,0,0,0,0,0,0,0,0,0,0,0,0,0,0,0,0,0,0,0,0,0,0,3.2219,3.2219,0,3.2217,3.2217,3.2217,3.2146,3.2144,3.2143,3.2141,3.2139,3.214,3.2142,0,0,0,0,0,0,0,0,0,0,0,0,0,3.216,3.2161,3.2219,3.2219,3.2219,3.2217,3.2217,3.2217,3.2147,3.2144,3.2142,3.214,3.2138,3.214,3.2142,0,0,0,0,0,0,0,0,0,0,0,0,0,3.2174,3.2162,3.2219,3.2183,3.218,3.2217,3.2217,3.2217,3.2147,3.2144,3.2141,3.2139,3.2137,3.214,3.2142,3.2213,0,0,3.215,3.2151,0,0,0,0,0,0,0,0,3.2174,3.2177,3.2189,3.2186,3.2182,3.2179,3.2195,3.2216,3.2148,3.216,3.2141,3.2138,3.2154,3.2155,3.2161,3.2213,3.2212,3.215,3.2152,3.2153,3.2153,0,0,0,0,0,0,0,3.2173,3.2176,3.2218,3.2189,3.2185,3.2167,3.2166,3.2199,3.2172,3.2158,3.2153,3.2154,3.2152,3.2159,3.216,3.2212,3.215,3.2152,3.2154,3.2155,3.2318,3.2321,0,0,0,0,0,0,3.2177,3.2176,3.2218,3.2218,3.2171,3.217,3.2169,3.2183,3.2172,3.2168,3.2156,3.2151,3.2156,3.2158,3.216,3.2238,3.2153,3.2155,3.2156,3.2315,3.2319,3.2322,0,0,0,0,0,0,3.2176,3.2181,3.2218,3.2196,3.2199,3.2174,3.219,3.2184,3.2191,3.217,3.2165,3.2168,3.2154,3.2156,3.2199,3.2237,3.2156,3.2158,3.2312,3.2316,3.232,3.2397,0,0,0,0,0,0,3.2174,3.2181,3.2208,3.2197,3.22,3.2258,3.2193,3.2186,3.2195,3.2188,3.218,3.2176,3.2152,3.2196,3.2202,3.2239,3.216,3.2308,3.2314,3.2319,3.2391,3.2404,3.2414,0,0,0,0,0,3.2172,3.2231,3.221,3.2215,3.2234,3.2261,3.2263,3.2234,3.2199,3.2225,3.2211,3.2176,3.2233,3.2201,3.2207,3.2246,3.2306,3.2312,3.2318,3.2386,3.2401,3.2414,0,0,0,0,0,0,3.2248,3.2229,3.2205,3.2262,3.2263,3.2249,3.2281,3.2251,3.2263,3.2255,3.2219,3.2218,3.2265,3.226,3.2225,3.2311,3.2263,3.2271,3.2312,3.2327,3.2338,3.2337,3.2162,0,0,0,0,0,3.2271,3.2295,3.2277,3.2328,3.233,3.2306,3.2316,3.2294,3.2294,3.2294,3.2284,3.2285,3.2302,3.2315,3.233,3.2391,3.2387,3.2421,3.2432,3.2442,3.2448,3.2476,3.249,3.2343,3.2343,3.2342,0,0,3.2319,3.2312,3.2329,3.2343,3.2342,3.2366,3.2307,3.2336,3.2352,3.2299,3.2337,3.233,3.2329,3.238,3.2402,3.2377,3.2488,3.245,3.2458,3.2459,3.2484,3.2498,3.2511,3.2347,3.2346,3.2346,0,0,3.2418,3.2417,3.2457,3.2456,3.2454,3.2437,3.2448,3.2437,3.243,3.2468,3.2427,3.2447,3.2479,3.2479,3.2483,3.2581,3.2547,3.2587,3.2646,3.2674,3.2686,3.2696,3.2727,3.2739,3.2594,3.2594,3.2594,0,3.2478,3.2513,3.2482,3.2512,3.2518,3.2471,3.251,3.2512,3.2515,3.252,3.2493,3.253,3.2526,3.2575,3.2598,3.2605,3.2613,3.2586,3.2687,3.2696,3.2705,3.2734,3.2747,3.2599,3.2598,3.2598,3.2597,0,3.2584,3.2609,3.2642,3.2645,3.2656,3.2691,3.2664,3.2679,3.2656,3.2641,3.268,3.2674,3.2685,3.2696,3.2674,3.2741,3.2725,3.2693,3.2643,3.2724,3.2751,3.2762,3.2605,3.2604,3.2602,3.2601,0,0,3.2729,3.2714,3.2726,3.2725,3.2719,3.2737,3.277,3.2781,3.2792,3.2797,3.2821,3.2849,3.2819,3.2824,3.2802,3.2827,3.29,3.2791,3.279,3.2808,3.2968,3.299,3.3003,3.2879,3.2881,3.2883,3.2967,0,3.2821,3.2874,3.2847,3.2904,3.2925,3.2879,3.2907,3.2906,3.2894,3.2909,3.2896,3.2914,3.2875,3.2877,3.29,3.2886,3.2931,3.288,3.2899,3.29,3.2897,3.3018,3.3041,3.312,3.2978,3.298,3.2981,0,3.2935,3.2942,3.3001,3.2988,3.2996,3.3022,3.3028,3.3044,3.3041,3.303,3.3035,3.3007,3.3036,3.299,3.3029,3.2995,3.3001,3.2996,3.2998,3.2995,3.2943,3.3015,3.3146,3.3156,3.2998,3.2997,3.2995,0,3.3029,3.3055,3.3091,3.3093,3.3081,3.3099,3.3095,3.3089,3.3097,3.3103,3.3107,3.3118,3.3122,3.313,3.3105,3.3074,3.3146,3.3098,3.3135,3.3136,3.315,3.3148,3.3279,3.3161,3.3161,3.3161,3.316,0,3.3133,3.3169,3.3133,3.3156,3.3195,3.3163,3.3203,3.3193,3.3189,3.3208,3.3171,3.319,3.3157,3.3172,3.3153,3.3186,3.319,3.318,3.3174,3.3181,3.3182,3.3182,3.3174,3.3164,3.3163,3.3162,3.3162,0,3.3243,3.3221,3.3258,3.3242,3.3239,3.3268,3.3255,3.3274,3.326,3.3284,3.3288,3.3265,3.3281,3.3257,3.3271,3.3258,3.3302,3.329,3.3302,3.3297,3.3335,3.333,3.3467,3.3482,3.3358,3.3359,3.336,0,3.3308,3.3335,3.3322,3.3332,3.3329,3.3346,3.3353,3.3323,3.3332,3.333,3.3349,3.3362,3.337,3.3397,3.3381,3.3391,3.3376,3.3423,3.3377,3.3382,3.3371,3.3368,3.3369,3.3431,3.3433,3.3434,3.3435,0,3.3425,3.3412,3.3424,3.3431,3.344,3.3444,3.3446,3.3456,3.3425,3.3436,3.3451,3.3458,3.3471,3.3483,3.3488,3.3483,3.3453,3.345,3.3459,3.3464,3.3469,3.3463,3.3324,3.3446,3.3445,3.3444,3.3444,3.3443,3.3512,3.3532,3.3525,3.3538,3.3536,3.3538,3.3555,3.3542,3.3554,3.3561,3.3544,3.3562,3.3557,3.3561,3.356,3.3573,3.3552,3.3566,3.3568,3.3571,3.3575,3.347,3.3575,3.3575,3.3574,3.3574,3.3574,0,3.3623,3.3616,3.3629,3.3631,3.3641,3.3613,3.3613,3.3623,3.364,3.3638,3.3646,3.3662,3.3673,3.3658,3.3667,3.368,3.3667,3.3683,3.368,3.3678,3.3595,3.3585,3.3694,3.3694,3.3694,3.3694,3.3694,3.3694,3.3682,3.3713,3.3699,3.3729,3.3722,3.3739,3.3741,3.3742,3.374,3.3759,3.3768,3.3758,3.375,3.3757,3.3766,3.3761,3.3764,3.3785,3.3775,3.3697,3.3685,3.3673,3.3663,3.3787,3.3787,3.3856,3.3857,3.3858]},{"header":{"parameterUnit":"m.s-1","parameterCategory":1,"la1":30.2991,"la2":30.254,"lo1":-89.0895,"lo2":-89.0444,"dy":0.0017,"dx":0.0017,"nx":28,"ny":28,"refTime":"2024-07-16T03:00:00:Z","depth":0,"parameterNumber":3,"parameterNumberName":"V-component_of_WINDS"},"data":[0,0,0,0,0,0,0,0,0,0,0,0,0,0,0,0,0,0,0,0,0,0,0,0,0,0,0,0,0,0,0,0,0,0,0,0,0,0,0,0,0,0,0,0,0,0,0,0,0,0,0,0,0,0,0,0,0,0,4.1482,4.1483,0,4.1653,4.1655,4.1657,4.1659,4.1657,4.1654,4.1652,4.1826,4.1832,4.1839,0,0,0,0,0,0,0,0,0,0,0,0,0,4.1153,4.1159,4.1481,4.1484,4.1486,4.1652,4.1655,4.1657,4.1659,4.1656,4.1654,4.1651,4.1824,4.1831,4.1839,0,0,0,0,0,0,0,0,0,0,0,0,0,4.1307,4.1161,4.1481,4.1507,4.1511,4.1652,4.1655,4.1658,4.166,4.1656,4.1653,4.165,4.1821,4.1831,4.184,4.1967,0,0,4.1871,4.1875,0,0,0,0,0,0,0,0,4.1298,4.1319,4.1501,4.1505,4.151,4.1631,4.1602,4.1761,4.166,4.1603,4.1652,4.1648,4.1763,4.1778,4.1817,4.1975,4.1982,4.1872,4.1878,4.1882,4.1885,0,0,0,0,0,0,0,4.1287,4.1311,4.1549,4.1504,4.1509,4.1509,4.1527,4.1633,4.1699,4.1608,4.1608,4.1629,4.1765,4.1807,4.1821,4.1985,4.1871,4.188,4.1886,4.189,4.2252,4.2255,0,0,0,0,0,0,4.1272,4.1303,4.1544,4.1554,4.1394,4.1517,4.1538,4.1595,4.1698,4.1711,4.1631,4.1628,4.1792,4.181,4.1827,4.198,4.1882,4.1891,4.1897,4.2248,4.2252,4.2256,0,0,0,0,0,0,4.1265,4.1293,4.1537,4.1429,4.146,4.1526,4.1591,4.1601,4.1643,4.1716,4.1728,4.1662,4.179,4.1813,4.1931,4.1986,4.1896,4.1905,4.2244,4.2249,4.2254,4.2288,0,0,0,0,0,0,4.1255,4.1291,4.1341,4.143,4.1465,4.1639,4.1595,4.1606,4.166,4.1658,4.1748,4.176,4.1789,4.1917,4.1941,4.1998,4.1913,4.2239,4.2246,4.2253,4.2282,4.2294,4.2304,0,0,0,0,0,4.1244,4.1343,4.1343,4.1372,4.1529,4.1643,4.1663,4.1695,4.1665,4.1714,4.1761,4.1757,4.1976,4.1929,4.1957,4.2017,4.2236,4.2244,4.2252,4.2277,4.2291,4.2303,0,0,0,0,0,0,4.1259,4.1356,4.1356,4.1488,4.1557,4.1643,4.1707,4.171,4.1788,4.1783,4.1819,4.1839,4.1956,4.1999,4.1944,4.2143,4.2102,4.2116,4.2112,4.2126,4.2136,4.2123,4.1921,0,0,0,0,0,4.1278,4.1363,4.1442,4.1551,4.1585,4.164,4.1691,4.1709,4.1782,4.1811,4.1866,4.1936,4.2021,4.2076,4.2157,4.2288,4.2307,4.2343,4.2354,4.2362,4.2374,4.2444,4.246,4.2283,4.2283,4.2283,0,0,4.1317,4.138,4.1432,4.1555,4.1611,4.1697,4.1665,4.1757,4.1821,4.1825,4.194,4.1983,4.2063,4.2187,4.2245,4.2226,4.2427,4.2373,4.2379,4.2386,4.2454,4.2471,4.2485,4.2289,4.2288,4.2287,0,0,4.1433,4.149,4.1586,4.1642,4.1726,4.1761,4.1784,4.1869,4.1898,4.2014,4.2018,4.2093,4.2238,4.2295,4.2342,4.2476,4.2475,4.2502,4.2558,4.2626,4.264,4.2652,4.2698,4.2715,4.2513,4.2514,4.2514,0,4.1471,4.1602,4.1634,4.1727,4.178,4.1787,4.1883,4.1936,4.2043,4.2078,4.2056,4.2237,4.2292,4.2428,4.246,4.2499,4.2525,4.2492,4.2635,4.2648,4.266,4.2705,4.2722,4.2516,4.2516,4.2516,4.2515,0,4.1643,4.1734,4.18,4.1903,4.1964,4.2057,4.2103,4.216,4.2173,4.221,4.2326,4.2392,4.2486,4.252,4.2534,4.2658,4.2643,4.2628,4.2587,4.2679,4.2721,4.2739,4.252,4.2519,4.2518,4.2517,0,0,4.1775,4.1893,4.1917,4.1962,4.2055,4.2124,4.2217,4.231,4.2357,4.243,4.2507,4.2629,4.2614,4.2668,4.2688,4.2748,4.2847,4.2725,4.2727,4.2744,4.2986,4.2996,4.3015,4.2847,4.285,4.2853,4.2978,0,4.1899,4.2066,4.2096,4.2241,4.2323,4.233,4.2411,4.2475,4.2512,4.2586,4.2626,4.2711,4.2687,4.2719,4.2778,4.2823,4.2896,4.2814,4.2918,4.2921,4.2897,4.3038,4.305,4.3165,4.2995,4.2998,4.3,0,4.2067,4.2144,4.2296,4.2375,4.2411,4.2483,4.2569,4.264,4.2713,4.2735,4.2794,4.2807,4.2901,4.2856,4.2986,4.293,4.2974,4.3002,4.3007,4.3018,4.2966,4.3051,4.3203,4.3219,4.3027,4.3025,4.3023,0,4.2146,4.2287,4.2395,4.2434,4.253,4.258,4.2622,4.2692,4.2744,4.2819,4.2853,4.2937,4.2983,4.3048,4.3082,4.3046,4.3209,4.3167,4.3229,4.3228,4.3263,4.326,4.3422,4.3293,4.3292,4.3292,4.3292,0,4.2281,4.2374,4.2432,4.2499,4.2602,4.2635,4.2736,4.2777,4.2838,4.2912,4.2923,4.2992,4.3033,4.3107,4.3135,4.3237,4.3258,4.3278,4.3284,4.3276,4.3274,4.3305,4.3298,4.3297,4.3296,4.3295,4.3294,0,4.2386,4.2429,4.2548,4.2628,4.265,4.2723,4.2791,4.2855,4.2891,4.2984,4.3007,4.3063,4.3151,4.3191,4.33,4.3318,4.3434,4.3435,4.341,4.3412,4.3471,4.3464,4.3659,4.3685,4.3539,4.354,4.3541,0,4.247,4.2541,4.2628,4.2678,4.2722,4.2803,4.2856,4.2891,4.2946,4.3033,4.3086,4.3174,4.3246,4.3386,4.3435,4.3518,4.352,4.3582,4.3533,4.3522,4.3519,4.3514,4.3521,4.3591,4.3593,4.3594,4.3595,0,4.2612,4.2629,4.2706,4.279,4.2853,4.2921,4.2987,4.3028,4.3073,4.3133,4.3223,4.3279,4.3389,4.3476,4.3561,4.3603,4.3606,4.361,4.3629,4.3621,4.3603,4.3612,4.3433,4.3606,4.3604,4.3604,4.3603,4.3603,4.2708,4.2771,4.2842,4.2926,4.2979,4.3041,4.3104,4.3147,4.3223,4.3316,4.3331,4.3426,4.3495,4.3609,4.3654,4.3728,4.3713,4.374,4.3747,4.3753,4.3755,4.3592,4.3744,4.3743,4.3743,4.3743,4.3743,0,4.285,4.2895,4.2973,4.3065,4.3131,4.3128,4.32,4.3255,4.3339,4.3403,4.3473,4.3575,4.3659,4.3714,4.3798,4.3846,4.385,4.3867,4.3863,4.3873,4.3764,4.374,4.3863,4.3863,4.3863,4.3863,4.3863,4.3863,4.2932,4.3037,4.3062,4.3193,4.3237,4.3331,4.3372,4.3428,4.3478,4.3592,4.3661,4.3697,4.3756,4.3845,4.392,4.3934,4.3964,4.3982,4.3995,4.3893,4.388,4.3868,4.3845,4.3988,4.3989,4.4097,4.4098,4.4099]}]]